Find Starlink 1849

NORAD ID: 47137 Int'l Des: 2020-088 Owner: SPXS Country: US Constellation: starlink decayed
LEOCIRCULAR

Re-entered — Jun 4, 2025

正在加载3D地球...

About Starlink 1849

Starlink 1849 (NORAD 47137) is a starlink constellation satellite (v1.0) launched Nov 25, 2020 by SPXS of US. It re-entered the atmosphere on Jun 4, 2025. with a mass of 260.00 kg.

关于 Starlink 1849

正在加载描述...

高度历史

Loading altitude history...

两行轨道根数

1 47137U 20088R 25154.17920830 .05300904 12040-4 11653-2 0 9997
2 47137 53.0290 61.9765 0006829 231.7339 246.8390 16.29635817250760
Epoch: Jun 3, 2025 • Age: 9743 hours

当前状态

Position data unavailable
发射日期 Nov 25, 2020
运行时间 5.6 years
衰减日期 Jun 4, 2025
类型 internet

技术详情

分类 Payload
质量 260.00 kg
干质量 248.00 kg
总质量 260.00 kg
长度 0.20 m
直径 2.80 m
跨度 9.00 m
形状 Box + pan
制造商 SPXS
平台类型 Starlink
阶段状态 Unknown Transfer Status
所有者/国家 SPXS/US

Most Searched